Погода в Хулини

Китай     30°31′41″N   114°48′19″E
темп.,
°C
ветер,
м/с
пор.,
м/с
влажн.,
%
обл.,
%
осадки,
мм/ч
давл.,
гПа
погр.,
м
18 мая, вт
вт1823:00+18юз2382100 0.0 1014139
02:00+18з238286 0.0 1013148
05:00+17ссв1183100 0.0 101270
08:00+19юз017695 0.0 1014456
11:00+20юз1168100 0.0 1013713
14:00+23зюз1160100 0.0 1011969
17:00+23юз326199 0.0 1010916
20:00+20ююз2372100 0.0 101180
19 мая, ср
ср1923:00+20ююз1274100 0.0 101136
02:00+19ю2279100 0.0 101062
05:00+19юв2281100 0.0 100972
08:00+19юв2386100 0.1 1010276
11:00+18вюв3494100 1.5 1010271
14:00+19в2384100 2.6 1008316
17:00+18ссз2290100 0.9 1008220
20:00+18всв1289100 1.8 100894
20 мая, чт
чт2023:00+18ссз1187100 0.1 100882
02:00+18зюз238896 0.1 100795
05:00+17зсз3489100 0.0 1007106
08:00+19ююз1183100 0.0 1008272
11:00+22з226692 0.0 1008755
14:00+25юз1255100 0.0 1007976
17:00+26ююв225598 0.0 1005816
20:00+22ю4576100 0.0 1006105
21 мая, пт
пт2123:00+21зюз2385100 0.0 100776
02:00+20зюз228792 0.0 100652
05:00+19ююз238997 0.0 100654
08:00+22ююв11801 0.0 1006317
11:00+26вюв2264100 0.0 1007767
14:00+28вюв3353100 0.0 1005877
17:00+28вюв3458100 0.0 1005749
20:00+25вюв3574100 0.0 100664
22 мая, сб
сб2223:00+23вюв4981100 0.0 1007188
02:00+23вюв5979100 0.0 1005191
05:00+23вюв498195 0.0 1005210
08:00+23вюв3884100 0.0 1007222
11:00+24юв6108288 0.0 1007444
14:00+23вюв51089100 0.1 1005367
17:00+23вюв3888100 0.2 1005348
20:00+22вюв4109081 0.9 1005424